Temp
55 57 64 66 66 66 66 66 66 66 66 65 65 65 65 66 67 67 66 68 69 71 72 72 72 73 71 71 70 69 69 68 69 68 68 67 67 67 67 66 66 66 66
54 56 57 65 66 66 67 67 66 65 66 64 63 64 64 64 64 65 65 67 67 69 71 72 72 72 72 70 70 69 69 68 68 68 67 66 67 67 66 66 66 65 65
52 54 56 59 66 67 66 67 66 64 63 65 63 63 63 63 64 64 64 64 67 67 68 70 70 71 71 70 69 69 68 68 68 68 67 67 66 65 65 65 65 65 65
52 52 56 58 66 66 66 66 65 63 63 64 62 61 61 63 64 63 63 64 64 66 67 67 68 69 70 70 70 70 69 68 68 67 67 66 66 65 65 65 65 65 64
52 51 54 56 57 66 66 66 65 65 63 63 61 61 60 61 63 64 62 62 62 63 64 66 66 66 68 69 70 70 69 69 68 68 67 66 66 65 65 65 65 64 64
51 50 52 54 56 61 65 65 65 65 64 63 61 59 59 60 63 62 62 63 62 62 62 64 66 65 65 67 69 70 70 69 69 69 67 66 66 65 65 65 64 64 64
49 49 49 52 54 56 57 65 65 63 63 62 59 57 59 60 60 61 61 61 61 61 61 62 63 65 66 65 67 70 70 69 69 69 67 67 66 65 65 64 64 64 64
49 49 48 48 51 54 56 64 63 62 62 62 59 57 54 57 60 61 60 60 59 61 61 61 61 62 63 66 66 67 69 70 69 69 68 66 66 65 65 64 64 64 64
49 48 48 48 50 51 54 54 63 62 61 62 61 59 54 53 57 59 59 59 59 58 61 61 61 61 61 62 63 65 64 64 67 69 68 66 66 67 66 65 65 65 64
48 49 47 48 48 50 52 52 56 63 62 61 61 61 60 60 55 53 57 58 60 59 58 59 61 61 61 61 61 60 59 59 62 66 68 67 67 67 66 65 65 65 64
48 49 47 47 48 49 50 53 54 58 63 62 61 60 59 59 59 56 54 54 57 59 60 60 60 61 61 61 61 60 57 57 58 61 65 67 67 67 66 66 65 64 64
46 48 48 47 47 48 50 52 54 56 61 62 62 61 60 59 57 57 55 55 56 58 61 61 59 60 61 61 62 59 56 55 56 59 61 64 66 67 66 66 65 65 65
44 46 46 47 47 48 51 51 53 55 57 61 62 61 62 61 61 59 58 56 56 58 57 61 61 61 62 61 62 59 57 54 55 56 58 60 61 64 65 65 65 65 65
42 46 46 47 48 48 48 48 51 53 54 57 61 62 62 61 61 61 59 57 55 56 57 59 62 61 62 62 62 57 62 53 53 54 55 57 58 59 60 62 63 64 64
45 45 47 47 47 47 46 47 48 49 50 54 58 61 61 61 61 61 61 61 59 54 56 58 59 62 62 62 61 61 61 57 52 52 53 54 56 57 58 58 59 60 62
44 45 46 46 45 45 45 45 45 49 49 51 55 59 62 61 61 61 61 61 61 60 56 60 59 61 62 64 61 61 62 57 52 51 50 51 53 55 56 56 56 57 58
45 45 45 45 43 43 43 43 44 47 47 49 52 53 58 62 61 61 61 61 61 61 58 61 61 61 60 61 63 61 62 61 61 51 50 50 50 51 52 53 54 54 55
45 44 44 43 42 42 42 41 42 44 46 47 48 51 54 56 61 61 61 60 60 61 60 58 61 60 61 61 62 60 61 64 62 55 50 49 49 49 49 50 50 51 52
43 42 42 40 41 40 39 40 41 44 46 48 49 50 52 52 50 56 61 60 61 60 60 60 59 61 61 62 61 62 60 61 62 56 50 48 48 48 48 48 49 49 49
41 41 39 39 39 38 39 39 40 43 45 47 47 48 46 45 44 45 51 60 60 60 60 59 59 59 60 62 62 59 58 59 60 61 55 52 50 48 48 48 48 48 48
41 40 37 37 37 38 39 39 41 44 43 43 44 46 45 43 42 41 45 47 52 59 59 58 58 58 58 57 58 59 60 59 58 59 58 55 54 53 53 47 51 48 47
38 36 34 35 35 38 37 38 40 43 42 41 40 42 44 41 41 40 41 40 43 51 57 58 58 56 58 59 60 59 58 56 56 59 58 58 55 55 57 56 50 47 45
37 33 33 33 33 35 37 38 38 42 41 39 38 39 40 40 39 41 43 43 45 41 42 49 55 57 57 58 59 59 57 57 57 59 59 58 54 57 61 58 48 46 45
32 31 31 32 32 35 37 37 38 41 40 39 37 37 37 36 36 39 43 45 46 46 45 47 48 50 53 57 60 59 60 60 60 60 61 56 56 57 61 62 49 47 45
31 31 31 31 31 31 36 36 37 39 37 37 37 36 36 35 36 37 39 40 41 42 44 43 41 41 41 41 42 54 55 55 55 58 60 58 58 58 58 60 61 47 46
31 31 31 31 33 30 35 36 35 35 34 34 35 35 35 34 35 35 35 35 35 37 39 41 41 41 42 42 41 45 46 51 53 52 57 56 58 55 52 56 61 61 55
MSLP
1019.93 1019.33 1018.16 1017.95 1017.91 1017.82 1018.23 1018.65 1019.31 1019.89 1020.32 1020.69 1020.87 1021.12 1021.54 1021.73 1022.10 1022.24 1022.65 1022.96 1023.30 1023.70 1024.02 1024.25 1024.41 1024.58 1024.97 1025.23 1025.66 1026.13 1026.50 1026.99 1027.32 1027.64 1027.91 1028.17 1028.41 1028.59 1028.85 1029.05 1029.14 1029.32 1029.48
1020.43 1019.61 1018.81 1017.70 1017.66 1017.84 1017.97 1018.48 1018.95 1019.55 1020.04 1020.58 1020.86 1020.94 1021.41 1021.70 1022.14 1022.45 1022.64 1023.02 1023.27 1023.76 1024.00 1024.27 1024.26 1024.61 1025.00 1025.34 1025.74 1026.17 1026.60 1026.91 1027.33 1027.70 1028.00 1028.30 1028.53 1028.83 1029.05 1029.26 1029.41 1029.58 1029.69
1020.87 1019.89 1018.99 1018.23 1017.05 1017.44 1017.01 1018.37 1018.75 1019.31 1019.78 1020.18 1020.75 1021.00 1021.37 1021.68 1022.09 1022.43 1022.70 1023.02 1023.32 1023.62 1024.03 1024.27 1024.38 1024.63 1025.10 1025.50 1025.79 1026.17 1026.57 1026.92 1027.27 1027.63 1028.04 1028.35 1028.68 1028.95 1029.19 1029.43 1029.60 1029.71 1029.85
1021.15 1020.11 1019.04 1018.41 1017.05 1016.91 1017.18 1017.78 1018.40 1019.04 1019.55 1020.08 1020.74 1021.09 1021.36 1021.62 1022.08 1022.39 1022.77 1023.07 1023.34 1023.59 1023.90 1024.30 1024.48 1024.74 1025.06 1025.45 1025.79 1026.12 1026.51 1026.90 1027.18 1027.57 1027.93 1028.26 1028.53 1028.94 1029.23 1029.53 1029.69 1029.80 1029.95
1021.37 1020.71 1019.79 1018.76 1018.02 1016.36 1016.29 1016.37 1017.58 1018.50 1019.18 1019.85 1020.49 1021.02 1021.44 1021.68 1022.04 1022.41 1022.76 1023.14 1023.39 1023.62 1023.85 1024.12 1024.53 1024.66 1025.01 1025.40 1025.73 1026.09 1026.40 1026.82 1027.19 1027.47 1027.82 1028.19 1028.50 1028.81 1029.17 1029.52 1029.70 1029.88 1030.09
1021.71 1021.17 1020.27 1019.26 1018.49 1017.36 1016.65 1016.76 1017.34 1017.94 1018.41 1019.21 1020.09 1021.20 1021.67 1021.89 1022.04 1022.42 1022.63 1023.08 1023.36 1023.64 1023.83 1024.02 1024.31 1024.70 1025.09 1025.27 1025.61 1025.93 1026.21 1026.60 1027.04 1027.32 1027.69 1028.12 1028.46 1028.75 1029.05 1029.39 1029.64 1029.82 1030.06
1022.16 1021.40 1020.64 1019.66 1018.65 1018.62 1017.46 1017.01 1016.77 1017.29 1017.44 1018.27 1019.92 1021.40 1022.19 1022.34 1022.45 1022.66 1022.75 1023.17 1023.41 1023.58 1023.85 1024.04 1024.15 1024.54 1024.95 1025.24 1025.45 1025.68 1025.97 1026.37 1026.77 1027.13 1027.47 1027.86 1028.29 1028.60 1028.92 1029.22 1029.49 1029.70 1029.93
1022.67 1021.97 1021.03 1020.18 1019.70 1018.86 1017.89 1017.01 1016.67 1016.67 1017.59 1017.68 1018.57 1020.41 1021.75 1022.58 1022.55 1022.82 1022.86 1023.13 1023.43 1023.65 1023.77 1023.99 1024.12 1024.34 1024.69 1024.99 1025.29 1025.48 1025.63 1025.99 1026.39 1026.78 1027.16 1027.54 1027.94 1028.36 1028.68 1028.95 1029.23 1029.49 1029.75
1023.11 1022.15 1021.30 1020.60 1019.97 1019.40 1018.58 1017.47 1016.79 1017.07 1017.17 1017.81 1018.55 1019.27 1020.74 1021.30 1022.08 1022.57 1022.85 1023.00 1023.27 1023.55 1023.62 1023.70 1024.08 1024.15 1024.45 1024.84 1025.08 1025.32 1025.51 1025.80 1026.08 1026.37 1026.68 1027.15 1027.57 1027.92 1028.29 1028.61 1028.86 1029.11 1029.41
1023.77 1021.98 1021.49 1021.10 1020.71 1019.80 1018.61 1018.08 1017.77 1016.61 1017.09 1017.76 1018.61 1018.80 1019.33 1020.10 1020.97 1022.23 1022.62 1022.74 1022.94 1023.23 1023.37 1023.56 1023.80 1023.97 1024.16 1024.55 1024.85 1025.10 1025.34 1025.68 1025.90 1026.08 1026.27 1026.66 1027.06 1027.43 1027.86 1028.17 1028.45 1028.75 1029.04
1023.41 1021.71 1021.27 1021.35 1020.69 1020.17 1019.44 1018.19 1017.70 1016.97 1016.71 1017.28 1017.81 1018.52 1019.35 1019.70 1020.02 1020.66 1021.55 1022.28 1022.70 1022.66 1022.76 1022.98 1023.25 1023.60 1023.74 1024.13 1024.51 1024.75 1024.99 1025.30 1025.65 1025.88 1025.96 1026.16 1026.44 1026.92 1027.37 1027.74 1028.12 1028.40 1028.66
1022.90 1021.55 1021.92 1021.26 1020.90 1020.25 1019.44 1018.36 1018.25 1017.20 1016.88 1016.91 1017.33 1017.76 1018.20 1018.89 1019.36 1019.85 1020.53 1021.41 1021.68 1021.95 1022.21 1022.40 1022.75 1023.07 1023.33 1023.55 1023.89 1024.21 1024.52 1024.83 1025.19 1025.49 1025.69 1025.79 1025.95 1026.28 1026.74 1027.19 1027.59 1027.91 1028.14
1023.02 1022.62 1022.07 1021.43 1020.79 1020.47 1019.27 1019.06 1018.29 1017.80 1017.38 1016.97 1017.18 1017.45 1017.92 1018.35 1018.66 1019.13 1019.93 1020.79 1020.95 1021.43 1021.69 1021.77 1021.84 1022.33 1022.55 1022.86 1023.10 1023.50 1023.92 1024.25 1024.52 1024.87 1025.19 1025.42 1025.59 1025.77 1026.11 1026.54 1026.94 1027.28 1027.48
1023.91 1022.93 1022.39 1021.85 1021.20 1020.76 1020.10 1019.08 1018.58 1018.21 1018.02 1017.32 1017.07 1017.16 1017.51 1017.88 1018.23 1018.52 1019.12 1019.81 1020.63 1020.91 1021.12 1020.85 1021.12 1021.41 1021.69 1021.95 1022.28 1022.74 1023.06 1023.49 1023.79 1024.08 1024.43 1024.78 1025.03 1025.29 1025.58 1025.85 1026.16 1026.55 1026.89
1024.05 1023.23 1022.64 1021.97 1021.70 1021.33 1020.52 1019.77 1019.33 1018.93 1018.37 1017.77 1017.38 1017.17 1017.61 1017.70 1018.08 1018.48 1018.76 1019.20 1019.68 1020.24 1020.23 1020.30 1020.62 1020.65 1020.96 1021.30 1021.48 1021.99 1022.24 1022.37 1022.83 1023.18 1023.54 1023.86 1024.22 1024.52 1024.84 1025.19 1025.44 1025.73 1026.07
1024.16 1023.57 1022.99 1022.68 1022.17 1021.81 1021.25 1020.25 1020.11 1019.34 1019.04 1018.34 1017.92 1017.39 1017.30 1017.62 1018.00 1018.20 1018.52 1018.87 1019.18 1019.56 1019.66 1019.55 1019.73 1019.97 1020.21 1020.35 1020.67 1021.10 1021.24 1021.67 1021.91 1022.29 1022.67 1022.94 1023.27 1023.64 1024.00 1024.31 1024.63 1024.96 1025.30
1024.08 1023.59 1023.29 1022.92 1022.65 1022.27 1021.55 1020.47 1020.69 1020.38 1019.55 1019.02 1018.56 1018.05 1017.41 1017.32 1017.40 1017.93 1018.41 1018.52 1018.86 1019.16 1019.25 1019.22 1019.34 1019.40 1019.82 1020.05 1020.14 1020.43 1020.72 1020.88 1021.07 1021.41 1021.81 1022.13 1022.42 1022.79 1023.21 1023.50 1023.78 1024.10 1024.50
1024.01 1023.81 1023.54 1023.13 1022.48 1022.19 1022.15 1021.51 1021.51 1020.86 1019.91 1019.45 1018.97 1018.61 1018.32 1017.95 1017.39 1017.78 1017.97 1018.09 1018.24 1018.53 1018.86 1018.90 1019.05 1019.20 1019.33 1019.50 1019.65 1019.93 1020.03 1020.10 1020.15 1020.31 1020.79 1021.24 1021.50 1021.87 1022.29 1022.59 1022.88 1023.21 1023.56
1024.42 1024.42 1024.15 1023.81 1023.39 1023.09 1022.86 1022.17 1022.31 1021.22 1020.66 1020.05 1019.49 1019.03 1018.91 1018.70 1018.38 1018.00 1017.65 1017.67 1017.87 1018.04 1018.26 1018.68 1018.69 1018.67 1019.02 1019.07 1019.34 1019.40 1019.52 1019.44 1019.48 1019.64 1020.05 1020.37 1020.67 1021.07 1021.31 1021.71 1021.97 1022.24 1022.57
1025.35 1025.16 1025.03 1024.73 1024.27 1023.95 1023.49 1022.74 1022.10 1021.69 1020.85 1020.28 1020.14 1020.01 1019.95 1019.83 1019.51 1019.13 1018.57 1017.58 1017.48 1017.69 1017.91 1018.23 1018.22 1018.45 1018.64 1018.73 1018.82 1018.89 1018.97 1018.98 1019.05 1019.13 1019.23 1019.51 1019.90 1020.28 1020.62 1020.92 1021.08 1021.21 1021.62
1025.82 1025.75 1025.69 1025.37 1024.88 1024.42 1023.96 1023.27 1022.65 1021.81 1021.52 1021.42 1021.06 1020.81 1020.83 1020.61 1020.44 1019.75 1019.53 1018.75 1018.11 1017.74 1017.84 1017.96 1018.06 1018.17 1018.23 1018.42 1018.31 1018.32 1018.43 1018.40 1018.45 1018.54 1018.89 1018.96 1019.58 1019.78 1019.85 1020.22 1020.19 1020.49 1020.73
1026.59 1026.33 1026.13 1025.84 1025.44 1024.96 1024.48 1023.73 1022.94 1022.55 1022.19 1022.06 1021.83 1021.56 1021.01 1020.73 1020.32 1020.00 1019.64 1019.15 1018.81 1018.40 1018.06 1018.00 1017.86 1017.89 1017.97 1018.02 1017.95 1017.97 1017.92 1018.06 1017.84 1017.70 1018.20 1018.46 1018.68 1018.76 1018.62 1018.84 1018.89 1019.37 1019.87
1027.17 1027.01 1026.75 1026.35 1026.01 1025.59 1024.93 1024.25 1023.55 1023.27 1023.08 1023.13 1023.06 1022.59 1021.98 1021.72 1021.31 1020.46 1019.80 1019.42 1019.18 1018.87 1018.88 1018.69 1018.22 1017.82 1017.62 1017.39 1017.39 1017.59 1017.75 1017.55 1017.66 1017.56 1017.83 1017.86 1018.19 1018.06 1017.66 1017.85 1018.09 1018.57 1018.92
1027.80 1027.67 1027.39 1027.03 1026.68 1026.30 1025.62 1024.98 1024.40 1023.98 1023.94 1023.86 1023.74 1023.38 1022.93 1022.51 1021.87 1021.02 1020.25 1019.64 1019.65 1019.46 1019.44 1019.19 1019.08 1018.83 1018.29 1017.58 1016.99 1016.95 1017.19 1017.34 1017.28 1017.33 1017.51 1017.59 1017.42 1017.42 1017.04 1017.03 1017.31 1017.48 1017.91
1028.17 1028.14 1028.01 1027.69 1027.28 1026.96 1026.25 1025.57 1024.95 1024.65 1024.59 1024.54 1024.44 1024.07 1023.71 1023.25 1022.53 1022.03 1020.90 1020.31 1020.11 1020.05 1019.95 1019.47 1019.68 1019.39 1018.62 1018.67 1018.43 1017.54 1017.34 1017.29 1017.28 1016.99 1017.01 1017.15 1016.90 1016.91 1016.75 1016.48 1016.28 1016.63 1016.85
1028.63 1028.50 1028.41 1028.19 1027.89 1027.51 1026.82 1026.25 1025.73 1025.41 1025.09 1024.98 1024.91 1024.85 1024.64 1024.28 1023.53 1022.89 1022.36 1021.71 1021.27 1021.16 1020.98 1020.09 1019.92 1019.27 1019.62 1019.22 1019.26 1019.24 1019.15 1018.05 1017.73 1017.43 1016.68 1016.71 1016.63 1016.88 1016.66 1015.97 1015.52 1015.64 1016.15
Wind_Speed
8 8 6 3 3 2 2 5 6 8 9 5 6 7 6 5 5 4 4 11 11 12 15 15 15 17 14 16 17 16 16 14 14 13 13 12 12 11 11 11 10 9 10
9 8 8 4 5 3 1 3 7 7 8 6 5 6 6 5 6 6 5 6 10 11 12 15 16 16 15 15 18 15 14 16 14 13 14 12 11 10 10 10 9 8 8
11 10 7 7 6 6 8 4 7 5 6 5 5 5 5 6 7 7 5 4 7 11 12 11 16 16 14 15 16 14 15 15 15 14 13 12 11 10 9 10 9 8 7
14 12 8 7 6 6 7 7 7 7 6 7 4 4 4 5 6 7 5 5 4 4 9 11 11 14 14 14 15 14 15 13 14 14 15 13 12 11 10 9 8 7 7
14 11 8 9 13 5 7 7 7 8 8 6 6 4 4 5 7 6 7 6 5 5 4 11 12 11 14 15 14 14 15 15 14 13 13 12 12 12 10 9 8 7 6
14 11 9 9 9 8 3 5 8 9 10 9 7 4 3 3 5 6 7 5 5 5 5 5 6 6 12 14 15 14 15 15 15 14 14 12 11 12 11 10 9 8 7
12 12 9 9 10 8 7 5 6 5 8 12 9 5 3 3 2 3 3 3 4 5 5 5 4 4 6 12 15 16 15 15 15 14 15 14 13 13 11 11 10 10 9
10 10 12 11 11 8 8 5 4 2 1 9 6 5 4 2 2 3 3 4 5 3 6 6 6 6 5 6 6 13 16 16 16 16 15 15 14 13 12 12 12 11 10
10 10 11 11 11 9 6 8 6 6 4 5 12 4 4 4 4 2 5 4 6 4 5 6 7 6 6 5 7 9 12 10 14 17 16 16 16 15 14 14 13 13 12
10 8 10 10 10 8 8 8 10 7 6 8 5 3 3 4 4 4 2 4 5 7 7 6 6 7 7 6 9 9 9 11 11 13 17 18 18 16 16 15 13 14 13
8 9 10 10 10 7 8 7 10 7 6 6 5 3 2 2 2 3 4 4 3 5 7 7 7 7 8 7 7 8 13 13 12 11 14 17 17 15 15 16 15 15 15
7 11 10 9 9 9 7 7 8 8 4 6 7 5 5 5 3 3 3 4 5 4 7 7 7 7 7 8 10 12 14 14 14 14 12 12 15 16 17 16 16 16 16
8 9 10 10 9 10 9 9 7 6 6 5 9 8 5 5 4 3 3 2 3 2 4 6 7 8 7 8 9 14 15 16 17 16 15 14 13 13 16 17 16 17 17
8 10 9 10 10 10 9 9 6 6 7 5 6 5 5 5 3 3 4 4 2 3 3 4 6 8 8 8 10 15 11 17 18 18 17 16 15 15 13 14 16 17 16
7 9 9 9 10 10 11 10 7 8 8 6 6 6 4 3 3 3 3 3 4 4 7 5 4 8 7 7 10 11 13 15 20 19 19 19 18 18 17 16 15 16 17
8 8 8 7 9 9 10 9 8 9 8 6 5 4 6 3 4 4 5 4 3 5 3 5 5 4 8 8 9 12 13 14 17 19 20 20 20 20 19 18 17 17 17
9 8 8 8 9 10 11 10 10 8 9 8 7 7 6 5 4 5 5 5 6 6 7 3 3 5 6 7 7 9 9 10 9 18 19 20 19 19 19 19 18 18 18
8 7 8 8 10 11 11 10 10 9 9 9 8 7 7 7 4 6 6 8 7 7 6 7 4 3 6 7 7 8 8 8 9 12 18 19 19 20 19 20 19 19 19
8 9 10 10 10 11 11 10 9 10 9 7 7 6 8 8 7 6 6 6 6 5 6 5 4 3 4 2 4 5 5 8 7 8 13 16 18 19 20 20 20 20 20
9 9 9 9 10 10 11 10 9 9 9 9 10 9 10 10 9 9 8 5 6 5 5 5 4 4 4 3 5 3 4 5 7 6 8 9 12 16 17 19 20 21 20
8 8 8 9 9 9 10 11 9 9 10 9 9 9 9 12 11 9 6 7 7 4 4 6 5 4 3 2 3 3 5 3 5 5 4 4 4 6 8 14 16 19 20
7 8 8 9 9 8 20 18 12 8 10 11 10 9 9 14 14 12 10 8 5 3 5 5 5 5 6 3 2 3 3 3 3 4 5 4 6 6 7 8 13 16 17
6 6 8 8 9 10 21 18 14 8 9 10 11 10 9 10 13 10 8 6 6 14 9 4 3 2 4 5 4 3 4 3 3 2 4 5 4 6 6 6 12 15 18
5 5 6 7 7 9 21 18 12 8 8 10 12 12 11 12 15 13 8 7 8 9 9 6 5 7 8 9 5 3 4 4 2 2 3 4 4 5 5 6 13 16 16
4 5 4 7 8 8 20 19 10 8 8 10 10 13 12 13 21 19 11 10 9 10 8 10 11 13 16 21 15 4 2 3 2 4 6 4 3 4 3 6 6 15 16
4 4 6 7 11 8 17 19 13 6 8 7 8 10 18 16 20 21 11 10 10 10 11 11 12 14 16 16 20 13 9 3 2 2 3 4 4 3 3 4 7 6 6
Wind_Direction
340 331 311 180 218 210 157 155 145 162 178 175 164 154 155 150 153 147 151 164 156 157 159 162 163 158 152 152 145 147 136 152 144 145 141 140 138 142 138 136 129 127 118
339 329 324 267 192 193 179 153 154 166 167 164 163 147 152 139 134 154 151 163 158 158 162 170 168 159 162 153 148 141 154 154 151 156 146 146 151 148 149 151 132 137 135
337 329 313 313 193 183 181 170 151 146 152 155 156 151 147 141 155 158 152 152 160 159 170 173 155 153 170 157 153 157 164 152 161 163 153 153 156 154 157 153 155 153 149
343 336 328 323 276 188 193 190 159 153 164 165 152 154 144 145 153 155 151 159 160 164 169 167 173 162 169 168 162 171 171 164 169 164 163 171 161 164 168 171 169 169 163
347 340 335 327 324 210 192 192 177 165 170 165 151 138 146 151 161 161 161 167 168 164 161 169 178 167 177 171 178 182 177 175 182 178 168 174 172 173 181 178 189 184 178
345 341 340 333 327 328 203 207 189 187 181 162 134 115 121 135 154 174 171 176 175 171 167 166 166 175 184 178 176 191 188 190 187 187 178 178 190 180 184 194 201 206 197
352 341 344 337 351 320 335 243 197 190 190 147 122 108 79 93 135 169 150 168 183 178 171 175 167 168 185 190 185 193 198 193 191 196 191 186 198 191 194 193 207 215 217
349 342 346 350 341 328 335 224 163 120 167 136 128 125 132 126 150 183 161 176 185 181 187 186 185 176 178 187 190 207 204 200 200 199 200 198 197 197 199 201 206 218 224
339 349 353 346 334 337 335 350 210 175 151 133 150 136 140 180 140 154 200 187 178 194 200 186 197 190 183 184 191 209 213 213 214 203 199 202 198 214 209 215 212 219 221
328 356 353 349 330 326 344 359 316 183 141 159 153 107 95 129 165 156 193 199 190 201 200 203 197 200 192 192 198 198 204 214 222 220 209 203 210 208 208 213 215 224 227
337 354 0 340 329 331 327 350 329 331 170 160 156 158 160 156 145 148 153 184 209 208 206 201 199 206 198 197 204 207 205 210 218 231 229 216 206 205 221 216 221 224 228
339 2 349 341 334 323 339 357 322 325 247 166 188 174 170 164 172 146 117 169 201 198 206 202 196 205 202 202 206 205 205 210 214 222 229 234 216 209 214 216 220 226 227
340 343 343 345 342 328 348 347 333 326 337 194 191 184 175 188 155 131 125 171 148 158 191 206 200 203 204 202 210 204 208 210 213 217 221 225 229 234 215 220 216 225 228
323 332 339 340 353 352 347 351 358 339 331 347 190 189 199 173 160 160 147 138 131 178 179 200 196 204 205 202 212 202 215 210 214 215 216 218 221 225 220 215 217 222 226
322 334 338 2 0 351 356 355 350 337 340 349 313 179 184 179 170 160 153 168 165 189 216 197 198 200 203 202 209 209 216 212 213 215 214 214 217 220 220 219 217 213 218
332 337 346 7 3 357 353 6 352 349 339 354 338 316 185 171 178 186 192 195 184 205 235 199 207 171 197 207 206 212 220 216 212 214 215 215 214 216 218 218 217 212 211
338 346 4 11 12 2 358 11 355 329 352 349 348 353 340 188 184 188 200 191 200 203 228 234 200 183 188 210 214 212 219 217 222 217 216 216 214 214 216 217 218 215 213
344 29 16 12 12 11 2 5 344 341 350 352 352 358 338 353 218 205 197 196 201 194 214 239 203 203 209 206 220 209 215 218 221 213 214 215 214 213 214 217 217 217 215
38 29 18 14 10 6 356 1 340 346 340 341 343 349 347 13 9 345 207 209 203 194 206 225 231 189 209 180 218 218 199 218 223 219 211 216 216 215 214 218 219 220 220
43 28 20 12 7 9 359 349 349 344 355 14 20 41 36 26 16 354 331 233 198 195 210 220 218 207 204 209 220 208 223 214 227 213 210 211 208 217 217 219 221 220 220
33 29 20 9 8 15 3 355 348 12 28 21 28 15 44 27 12 14 348 337 322 207 215 216 220 206 179 184 199 189 232 210 216 195 208 210 195 216 221 224 233 224 223
44 28 16 8 6 12 2 3 5 33 40 27 19 12 19 17 1 353 334 311 291 325 269 223 229 204 227 204 206 209 221 215 232 191 191 232 181 222 220 215 214 220 222
45 29 16 12 7 7 8 5 12 32 45 40 27 19 20 13 2 349 342 351 33 55 36 323 334 232 215 207 201 216 217 189 215 192 200 244 172 236 233 227 207 210 221
40 25 15 11 12 10 7 7 10 36 43 46 38 23 24 13 7 356 2 30 23 31 20 11 346 338 324 325 234 200 226 220 235 198 182 251 165 232 229 227 204 212 218
36 29 15 10 17 14 10 12 13 35 40 42 41 32 27 20 16 7 27 28 32 20 357 25 42 26 38 29 17 329 250 218 250 242 194 228 202 233 217 233 219 215 220
42 30 26 14 19 11 18 24 24 15 36 36 35 35 33 32 28 28 29 25 34 18 359 19 22 30 24 29 25 24 358 349 270 318 253 215 226 180 291 244 231 224 226